EW0690 Weather Reports


Display with metric or nautical units.
time (UTC)temp
F
wind
direction
speed
MPH
gust
MPH
rain 1hr
in
rain 24hr
in
rain mn
in
humidity
%
barometer
mb
20260507191522 65 95 1.0 6.0 0.00 0.00 0.00 69 1013.2
20260507190012 66 149 3.0 6.0 0.00 0.00 0.00 67 1013.1
20260507184512 66 117 2.0 6.0 0.00 0.00 0.00 66 1012.9
20260507183022 67 125 3.0 9.0 0.00 0.00 0.00 64 1012.8
20260507181510 68 123 5.0 10.0 0.00 0.00 0.00 61 1012.6
20260507180010 69 117 5.0 10.0 0.00 0.00 0.00 58 1012.4
20260507174508 70 95 5.0 10.0 0.00 0.00 0.00 57 1012.2
20260507173009 70 96 6.0 12.0 0.00 0.00 0.00 56 1012.1
20260507171510 71 77 4.0 9.0 0.00 0.00 0.00 55 1012.0
20260507170008 71 139 8.0 10.0 0.00 0.00 0.00 54 1012.1
20260507164506 72 104 5.0 10.0 0.00 0.00 0.00 52 1012.0
20260507163009 72 129 6.0 9.0 0.00 0.00 0.00 50 1011.8
20260507161505 72 121 5.0 9.0 0.00 0.00 0.00 49 1011.9
20260507160006 72 98 5.0 11.0 0.00 0.00 0.00 49 1011.9
20260507154503 72 142 3.0 8.0 0.00 0.00 0.00 49 1011.9
20260507153001 72 150 6.0 9.0 0.00 0.00 0.00 50 1012.0
20260507151501 71 120 3.0 8.0 0.00 0.00 0.00 52 1012.2
20260507150001 72 118 5.0 9.0 0.00 0.00 0.00 51 1012.2
20260507144602 72 86 3.0 7.0 0.00 0.00 0.00 50 1012.2
20260507143121 71 114 3.0 7.0 0.00 0.00 0.00 49 1012.1
20260507141634 72 41 4.0 10.0 0.00 0.00 0.00 45 1012.1
20260507140056 73 174 3.0 9.0 0.00 0.00 0.00 44 1012.2
20260507134602 72 44 1.0 7.0 0.00 0.00 0.00 42 1012.2
20260507133101 73 79 8.0 11.0 0.00 0.00 0.00 42 1012.3
20260507131554 72 343 3.0 8.0 0.00 0.00 0.00 42 1012.5
20260507130053 72 352 3.0 12.0 0.00 0.00 0.00 41 1012.4
20260507124552 72 121 6.0 12.0 0.00 0.00 0.00 42 1012.5
20260507123050 71 253 1.0 8.0 0.00 0.00 0.00 41 1012.5
20260507121548 71 111 3.0 8.0 0.00 0.00 0.00 44 1012.7
20260507120056 71 38 4.0 7.0 0.00 0.00 0.00 42 1012.8
20260507114546 70 20 3.0 7.0 0.00 0.00 0.00 43 1012.9
20260507113049 70 338 2.0 7.0 0.00 0.00 0.00 43 1013.1
20260507111542 70 332 2.0 6.0 0.00 0.00 0.00 47 1013.1
20260507110040 70 36 2.0 5.0 0.00 0.00 0.00 49 1013.2
20260507104538 69 92 3.0 7.0 0.00 0.00 0.00 50 1013.4
20260507103036 69 108 0.0 9.0 0.00 0.00 0.00 54 1013.4
20260507101537 69 289 6.0 12.0 0.00 0.00 0.00 51 1013.5
20260507100037 68 142 2.0 9.0 0.00 0.00 0.00 51 1013.6
20260507094535 67 163 2.0 7.0 0.00 0.00 0.00 53 1013.7
20260507093036 68 41 0.0 5.0 0.00 0.00 0.00 52 1013.8
20260507091529 67 46 4.0 7.0 0.00 0.00 0.00 55 1013.8
20260507090026 66 24 4.0 8.0 0.00 0.00 0.00 56 1013.8
20260507084525 66 68 2.0 7.0 0.00 0.00 0.00 54 1013.6
20260507083024 66 333 2.0 5.0 0.00 0.00 0.00 55 1013.6
20260507081530 66 79 0.0 4.0 0.00 0.00 0.00 55 1013.6
20260507080021 66 195 0.0 3.0 0.00 0.00 0.00 55 1013.5
20260507074621 65 56 4.0 7.0 0.00 0.00 0.00 55 1013.4
20260507073018 65 281 0.0 4.0 0.00 0.00 0.00 57 1013.4
20260507071518 64 203 2.0 5.0 0.00 0.00 0.00 58 1013.4
20260507070016 64 278 2.0 4.0 0.00 0.00 0.00 58 1013.1
20260507064513 65 278 0.0 2.0 0.00 0.00 0.00 63 1013.2
20260507063009 64 134 0.0 2.0 0.00 0.00 0.00 65 1013.1
20260507061509 63 50 2.0 3.0 0.00 0.00 0.00 66 1012.9
20260507060006 63 60 0.0 2.0 0.00 0.00 0.00 67 1012.8
20260507054505 62 79 0.0 1.0 0.00 0.00 0.00 70 1012.7
20260507053000 60 84 0.0 1.0 0.00 0.00 0.00 74 1012.6
20260507051502 58 65 0.0 1.0 0.00 0.00 0.00 77 1012.5
20260507050101 57 120 0.0 1.0 0.00 0.00 0.00 81 1012.4
20260507050001 57 120 0.0 1.0 0.00 0.00 0.00 81 1012.4
20260507044600 55 120 0.0 1.0 0.00 0.00 0.00 84 1012.2
20260507043055 53 134 0.0 2.0 0.00 0.00 0.00 86 1012.1
20260507041600 53 292 0.0 1.0 0.00 0.00 0.00 85 1012.0
20260507040104 53 215 0.0 0.0 0.00 0.00 0.00 86 1011.8
20260507034607 53 215 0.0 1.0 0.00 0.00 0.00 86 1011.7
20260507033102 54 9 0.0 1.0 0.00 0.00 0.00 84 1011.7
20260507031545 54 18 0.0 1.0 0.00 0.00 0.00 84 1011.6
20260507030045 54 356 0.0 1.0 0.00 0.00 0.00 82 1011.6
20260507024552 54 98 2.0 3.0 0.00 0.00 0.00 82 1011.5
20260507023039 55 194 0.0 2.0 0.00 0.00 0.00 81 1011.4
20260507021537 55 327 0.0 0.0 0.00 0.00 0.00 79 1011.4
20260507020037 56 6 1.0 2.0 0.00 0.00 0.00 78 1011.4
20260507014535 56 107 0.0 3.0 0.00 0.00 0.00 76 1011.2
20260507013037 56 197 0.0 1.0 0.00 0.00 0.00 78 1011.1
20260507011533 57 125 0.0 1.0 0.00 0.00 0.00 76 1011.2
20260507010036 58 228 0.0 3.0 0.00 0.00 0.00 74 1011.1
20260507004525 58 273 0.0 4.0 0.00 0.00 0.00 73 1011.2
20260507003022 59 56 2.0 4.0 0.00 0.00 0.00 68 1011.2
20260507001523 60 164 2.0 7.0 0.00 0.00 0.00 68 1011.1
20260507000121 60 208 3.0 7.0 0.00 0.00 0.00 68 1011.3
20260506234536 59 208 1.0 4.0 0.00 0.00 0.00 68 1011.2
20260506233019 60 246 3.0 9.0 0.00 0.00 0.00 67 1011.3
20260506231516 59 186 3.0 4.0 0.00 0.00 0.00 68 1011.4
20260506230017 60 195 3.0 8.0 0.00 0.00 0.00 65 1011.4
20260506224524 60 256 3.0 6.0 0.00 0.00 0.00 67 1011.4
20260506223011 61 260 2.0 5.0 0.00 0.00 0.00 64 1011.3
20260506221509 61 204 2.0 7.0 0.00 0.00 0.00 64 1011.1
20260506220017 61 190 3.0 5.0 0.00 0.00 0.00 63 1011.1
20260506214505 61 174 3.0 9.0 0.00 0.00 0.00 63 1011.1
20260506213005 61 191 3.0 8.0 0.00 0.00 0.00 62 1011.0
20260506211511 61 193 2.0 5.0 0.00 0.00 0.00 63 1011.0
20260506210005 62 176 0.0 4.0 0.00 0.00 0.00 61 1011.0
20260506204503 62 181 0.0 3.0 0.00 0.00 0.00 60 1010.8
20260506203001 62 195 1.0 5.0 0.00 0.00 0.00 59 1010.8
20260506201501 63 249 2.0 7.0 0.00 0.00 0.00 58 1010.7
20260506200112 63 193 4.0 10.0 0.00 0.00 0.00 57 1010.4
20260506194601 63 194 5.0 10.0 0.00 0.00 0.00 56 1010.2
20260506193112 63 163 8.0 13.0 0.00 0.00 0.00 55 1010.1